Regional Weather Roundup
Issued by NWS

Home | Current Version | Previous Version | Graphics & Text | Print | Product List | Glossary On
Versions: 1 2 3 4 5 6 7 8 9 10 11 12 13 14 15 16 17 18 19 20 21 22 23 24 25 26 27
000
ASUS45 KBOU 161007
RWRCO

WEATHER ROUNDUP FOR COLORADO
NATIONAL WEATHER SERVICE DENVER/BOULDER CO
300 AM MST MON JAN 16 2017

NOTE: "FAIR" INDICATES FEW OR NO CLOUDS BELOW 12000 FEET WITH NO
SIGNIFICANT WEATHER AND/OR OBSTRUCTIONS TO VISIBILITY.

COZ001>005-013-030-031-161100-
...NORTHWEST COLORADO...

CITY           SKY/WX    TMP DP  RH WIND       PRES   REMARKS
CRAIG          CLOUDY    16  13  88 NW3       30.08R
HAYDEN         CLOUDY    18  12  79 W5        30.05R VSB 3/4 WCI  11
MEEKER         FAIR      19  16  88 CALM      30.05R
MOUNT WERNER   NOT AVBL
STEAMBOAT SPGS CLOUDY    19  18  93 W3        30.03R
WALDEN           N/A    N/A N/A N/A CALM      29.99S
$$

COZ006>008-011-161100-
...WEST CENTRAL VALLEYS...

CITY           SKY/WX    TMP DP  RH WIND       PRES   REMARKS
GRAND JUNCTION CLOUDY    34  26  72 N5        29.99S WCI  30
MONTROSE       FLURRIES  31  30  96 SE5       30.00R WCI  26
EAGLE          LGT SNOW  27  25  92 CALM      29.99S FOG
RIFLE          CLOUDY    30  21  69 NW8       30.01R WCI  22
DELTA          CLOUDY    34  32  91 NE3       29.97S
NUCLA          NOT AVBL
$$

COZ017>023-064>068-161100-
...SOUTHWEST COLORADO...

CITY           SKY/WX    TMP DP  RH WIND       PRES   REMARKS
DURANGO        MIX PCPN  34  30  85 SW8       29.86S WCI  27
CORTEZ         CLOUDY    35  33  92 W7        29.92S WCI  29
PAGOSA SPRINGS LGT SNOW  33  33 100 CALM      29.88R
TELLURIDE      LGT SNOW  27  27  99 W7        29.93R WCI  19
WOLF CREEK PAS   N/A     21  21 100 CALM      29.95S
$$

COZ009-010-012-014-032>034-037-058>063-161100-
...CENTRAL COLORADO...

CITY           SKY/WX    TMP DP  RH WIND       PRES   REMARKS
ASPEN          CLOUDY    27  26  96 NW5       29.93R FOG     WCI  22
BUENA VISTA    LGT SNOW  30  29  94 CALM      29.88R
COPPER MTN     SNOW      25  19  80 MISG      29.94S VSB 1/4
BERTHOUD PASS  NOT AVBL
COTTONWOOD PAS LGT SNOW  32  30  93 SW3       29.89S
GUNNISON       LGT SNOW  23  21  92 CALM      29.92R FOG
KREMMLING      LGT SNOW  27  23  86 CALM      29.97S
LEADVILLE      LGT SNOW  25  22  88 NW9       29.89R FOG     WCI  15
MONARCH PASS     N/A     23  21  93 MISG      30.01S
SALIDA         CLOUDY    33  32  96 CALM      29.95S
SUNLIGHT       LGT SNOW  21  21 100 N3        29.98S
WILKERSON PASS CLOUDY   N/A N/A N/A NE12G18   29.92S HAZE
$$

COZ069>075-161100-
...SAN LUIS VALLEY/SANGRE DE CRISTO MOUNTAINS...

CITY           SKY/WX    TMP DP  RH WIND       PRES   REMARKS
ALAMOSA        LGT SNOW  31  31 100 E5        29.85S FOG     WCI  26
LA VETA PASS   LGT SNOW  27  23  86 SE12G17   29.86F WCI  16
SAGUACHE       CLOUDY    34  32  93 NW9       29.86R WCI  26
$$

COZ035-036-038>040-161100-
...NORTHERN COLORADO FRONT RANGE...

CITY           SKY/WX    TMP DP  RH WIND       PRES   REMARKS
DENVER INTL AP LGT SNOW  28  26  92 N9        29.95S FOG     WCI  19
DMNS CITY PARK   N/A     30  30 100 N5        29.96S WCI  26
AURORA         LGT SNOW  29  29 100 N8        29.95F FOG     WCI  21
FRONT RANGE AP LGT SNOW  30  28  93 N10       29.95S WCI  21
ERIE MUNI ARPT MIX PCPN  32  31  98 N3        29.96F
BOULDER MUN AP LGT SNOW  32  32 100 CALM      29.96S
CENTENNIAL     LGT SNOW  29  27  92 N9        29.94F VSB 1   WCI  20
BROOMFIELD     LGT SNOW  32  32 100 N6        29.96S WCI  26
FORT COLLINS   FAIR      30  30 100 NE12      29.98S WCI  21
LONGMONT       LGT SNOW  33  32  94 CALM      29.99R
$$

COZ041-046-047-076>085-087-088-161100-
...PIKES PEAK/PALMER DIVIDE AND SOUTHERN FOOTHILLS...

CITY           SKY/WX    TMP DP  RH WIND       PRES   REMARKS
COLO. SPRINGS  LGT SNOW  31  24  75 NW23G31   29.87F WCI  18
A. F. ACADEMY  DRIZZLE   29  24  82 N20G30    29.88R WCI  16
SCHRIEVER AFB  NOT AVBL
ELLICOTT       LGT SNOW N/A N/A N/A N17G28    29.84S
FALCON         FLURRIES  28  23  80 N22G33    29.85F WCI  14
FORT CARSON    LGT SNOW  31  29  94 NE20G25   29.87  WCI  18
LIMON          LGT SNOW  27  26  96 NW17      29.89F FOG     WCI  14
MONUMENT HILL  LGT SNOW  23  23 100 N10       29.93S WCI  12
TRINIDAD       SNOW      31  29  92 SW3       29.86F VSB 1/4
$$

COZ042>045-048>051-090-091-161100-
...NORTHEAST COLORADO...

CITY           SKY/WX    TMP DP  RH WIND       PRES   REMARKS
GREELEY ARPT   LGT SNOW  30  28  92 NW9       29.98F FOG     WCI  22
AKRON          MIX PCPN  28  26  92 N14       29.92F FOG     WCI  17
BURLINGTON     FRZ RAIN  31  29  92 N16       29.89F FOG     WCI  20
WRAY           NOT AVBL
STERLING       LGT SNOW  30  30 100 CALM      29.95S
HOLYOKE        CLOUDY    34  32  93 N6        29.95S FOG     WCI  29
FORT MORGAN    LGT SNOW  29  28  95 W5        29.96F WCI  24
$$

COZ086-089-092>099-161100-
...SOUTHEAST COLORADO...

CITY           SKY/WX    TMP DP  RH WIND       PRES   REMARKS
PUEBLO         LGT SNOW  33  32  96 SW3       29.88S FOG
LA JUNTA       LGT SNOW  33  31  92 NW7       29.90S VSB 3/4 WCI  27
LAMAR          LGT SNOW  32  30  92 N5        29.86F FOG     WCI  27
SPRINGFIELD      N/A     29  29 100 N18G25    29.81F WCI  16
$$




USA.gov is the U.S. government's official web portal to all federal, state and local government web resources and services.